Regional Weather Roundup
Issued by NWS Green Bay, WI

Home | Current Version | Previous Version | Text Only | Print | Product List | Glossary On
Versions: 1 2 3 4 5 6 7 8 9 10 11 12 13 14 15 16 17 18 19 20 21 22 23 24 25 26 27 28 29 30 31 32 33 34 35 36 37 38 39 40 41 42 43 44 45 46 47 48 49 50
000
ASUS43 KGRB 142111
RWRGRB

NORTH-CENTRAL AND NORTHEAST WISCONSIN REGIONAL WEATHER ROUNDUP
NATIONAL WEATHER SERVICE GREEN BAY WI
300 PM CST THU DEC 14 2017

WIZ005-009-010>012-018-019-142200-
NORTH CENTRAL WISCONSIN

CITY           SKY/WX    TMP DP  RH WIND       PRES   REMARKS
IRONWOOD       NOT AVBL
MANITOWISH WTR LGT SNOW  15  13  91 W3        29.90F
ARBOR VITAE    LGT SNOW  17  13  86 CALM      29.91S
EAGLE RIVER    FLURRIES  15   8  76 W7        29.90S WCI   5
LAND O LAKES   LGT SNOW  16  10  79 SW3       29.91F
RHINELANDER    LGT SNOW  18  13  80 W7        29.91F WCI   9
PHILLIPS       LGT SNOW  18  15  90 SW5       29.91F
ANTIGO         FLURRIES  18  14  82 W7        29.93S WCI   9
TOMAHAWK       LGT SNOW  19  14  82 W3        29.93S
MERRILL        FLURRIES  19  15  83 W7        29.95S
$$

WIZ013-073-142200-
NORTHEAST WISCONSIN

CITY           SKY/WX    TMP DP  RH WIND       PRES   REMARKS
IRON MOUNTAIN  MOCLDY    21   8  57 W7        29.91S
MARINETTE      NOT AVBL
OCONTO         CLOUDY    21  12  68 W7        29.99S
$$

WIZ017-030-035>037-045-142200-
CENTRAL WISCONSIN

CITY           SKY/WX    TMP DP  RH WIND       PRES   REMARKS
MEDFORD        LGT SNOW  19  14  82 SW9       29.93F WCI   7
WAUSAU         FLURRIES  20  14  77 W9        29.95S WCI   9
MOSINEE        LGT SNOW  19  16  86 SW8       29.97F WCI   9
MARSHFIELD     CLOUDY    20  14  77 W8        29.96S
WISC RAPIDS    CLOUDY    23  12  62 W7        30.01S
STEVENS POINT  FLURRIES  19  13  77 W6        29.99S
WAUPACA        PTCLDY    25  14  62 SW8       30.01S
SHAWANO        CLOUDY    24  16  69 W6        29.98S
CLINTONVILLE   CLOUDY    23  14  68 W5        29.99S
WAUTOMA        PTSUNNY   24  13  62 W10       30.01F
$$

WIZ038-039-048-051-142200-
FOX VALLEY

CITY           SKY/WX    TMP DP  RH WIND       PRES   REMARKS
NWS GREEN BAY  PTCLDY    20  10  65 SW5       30.00F
APPLETON       CLOUDY    21  10  63 SW7       29.98F
OSHKOSH        PTCLDY    21  12  68 SW7       30.01F
FOND DU LAC    CLEAR     22  10  60 SW6       30.02F
$$

WIZ022-050-052-142200-
EAST CENTRAL WISCONSIN

CITY           SKY/WX    TMP DP  RH WIND       PRES   REMARKS
EPHRAIM        CLOUDY    19  10  67 W6        29.96S
WASHINGTON ISL CLOUDY    20  10  64 W6        29.97S
STURGEON BAY   CLEAR     20  11  68 SW8       29.99S
MANITOWOC      CLEAR     22  11  62 W9        30.02F
SHEBOYGAN      CLEAR     19  10  68 W8        30.01F WCI   9
$$

LMZ563-521-522-541>543-142200-
LAKESHORE

STATION/POSITION TIME  TEMP    WIND        PRES    VSBY  WAVE
                       AIR SEA DIR/SP/G                  HT/PER
                 (UTC) (F)     (DEG/KT/KT) (MB)    (MI)  (FT/S)
SHEBOYGAN LKSHOR 2000   21     290/  7/ 10 1018.1F
NORTHPORT PIER   1956   23     310/  2/ 10 1014.9
$$



USA.gov is the U.S. government's official web portal to all federal, state and local government web resources and services.